Location: Coll
(42.4728°N, 0.7714°E)
Time: 12:03:53
(UTC+00:00)

Meteor 2-5 Rocket - Pass Details

Date: 23 October 2020
Orbit: 833 x 911 km, 81.2° (Epoch: 01 December)

Event Time Altitude Azimuth Distance (km) Brightness Sun altitude
Rises 04:45:34 0° 178° (S) 3,396 6.9 -18.0°
Reaches altitude 10° 04:47:58 10° 174° (S) 2,474 6.2 -17.6°
Maximum altitude 04:53:30 62° 95° (E) 973 4.3 -16.5°
Drops below altitude 10° 04:59:11 10° 17° (NNE) 2,543 6.4 -15.5°
Sets 05:01:41 0° 14° (NNE) 3,498 7.1 -15.0°
